Location: Erfurt
(50.9688°N, 11.0193°E)
Time: 22:15:11
(UTC+01:00)

ISS - Pass Details

Date: 05 January 2018
Orbit: 401 x 407 km, 51.6° (Epoch: 17 January)

Event Time Altitude Azimuth Distance (km) Brightness Sun altitude
Exits shadow 06:05:22 82° 15° (NNE) 416 -3.9 -19.8°
Drops below altitude 10° 06:08:36 10° 81° (E) 1,469 0.0 -19.3°
Sets 06:10:42 0° 82° (E) 2,332 1.3 -19.0°
